Location: Czu?�w
(50.1404°N, 18.9919°E)
Time: 02:37:38
(UTC+00:00)

Geosat - Pass Details

Date: 27 October 2020
Orbit: 763 x 766 km, 108.0° (Epoch: 24 November)

Event Time Altitude Azimuth Distance (km) Brightness Sun altitude
Exits shadow 17:26:30 33° 61° (ENE) 1,278 4.7 -19.4°
Maximum altitude 17:28:23 49° 114° (ESE) 987 4.1 -19.7°
Drops below altitude 10° 17:33:14 10° 189° (S) 2,299 6.5 -20.5°
Sets 17:35:34 0° 195° (SSW) 3,221 7.4 -20.8°
